Weather History for Madison, SD

Change the Weather History Date:

Tuesday, February 26, 2013

  Actual Average Record
Temperature  
Mean Temperature 19 °F -  
Max Temperature 24 °F 37 °F 32 °F (2012)
Min Temperature 14 °F 18 °F -9 °F (2014)
Degree Days  
Heating Degree Days 46    
Moisture  
Dew Point 20 °F    
Average Humidity 100    
Maximum Humidity 100    
Minimum Humidity 100    
Precipitation  
Precipitation 0.00 in - - ()
Sea Level Pressure  
Sea Level Pressure 29.93 in    
Wind  
Wind Speed 9 mph (ENE)    
Max Wind Speed 16 mph    
Max Gust Speed 22 mph    
Visibility 3 miles    
Events Fog , Snow    
Averages and records for this station are not official NWS values.
T = Trace of Precipitation, MM = Missing Value Source: NWS Daily Summary

Daily Weather History Graph

Daily Weather History Graph

Search for Another Location

Airport:

Trip Planner

Search our weather history database for the weather conditions in past years. The results will help you decide how hot, cold, wet, or windy it might be!

Date:

Astronomy

Feb. 26, 2013 Rise Set
Actual Time 7:09 AM CST 6:13 PM CST
Civil Twilight 6:40 AM CST 6:42 PM CST
Nautical Twilight 6:07 AM CST 7:15 PM CST
Astronomical Twilight 5:33 AM CST 7:49 PM CST
Moon 7:35 PM CST (2/26) 7:09 AM CST (2/26)
Length of Visible Light 12h 01m
Length of Day
11h 03m
Full, 99% of the Moon is Illuminated
Feb 26
Full
Mar 4
Last Quarter
Mar 11
New
Mar 19
First Quarter
Mar 27
Full

Hourly Weather History & Observations

Time (CST) Temp. Windchill Dew Point Humidity Pressure Visibility Wind Dir Wind Speed Gust Speed Precip Events Conditions
12:15 AM 19.4 °F 10.4 °F 19.4 °F 100% 29.96 in 0.2 mi ESE 6.9 mph - N/A Fog Light Freezing Fog
12:35 AM 19.4 °F 11.5 °F 19.4 °F 100% 29.96 in 0.2 mi ESE 5.8 mph - N/A Fog Light Freezing Fog
12:55 AM 19.4 °F 7.9 °F 19.4 °F 100% 29.96 in 0.2 mi East 10.4 mph - N/A Fog Light Freezing Fog
1:15 AM 19.4 °F 10.4 °F 19.4 °F 100% 29.96 in 0.2 mi East 6.9 mph - N/A Fog Light Freezing Fog
1:35 AM 19.4 °F 9.5 °F 19.4 °F 100% 29.98 in 0.2 mi ESE 8.1 mph - N/A Fog Light Freezing Fog
1:55 AM 19.4 °F 10.4 °F 19.4 °F 100% 29.97 in 0.5 mi ESE 6.9 mph - N/A Fog Light Freezing Fog
2:15 AM 19.4 °F 9.5 °F 19.4 °F 100% 29.96 in 1.0 mi SE 8.1 mph - N/A   Overcast
2:40 AM 19.4 °F 10.4 °F 19.4 °F 100% 29.94 in 0.5 mi East 6.9 mph - N/A Fog Light Freezing Fog
2:55 AM 19.4 °F 11.5 °F 19.4 °F 100% 29.94 in 0.5 mi East 5.8 mph - N/A Fog Light Freezing Fog
3:20 AM 19.4 °F 10.4 °F 19.4 °F 100% 29.94 in 0.5 mi ESE 6.9 mph - N/A Fog Light Freezing Fog
3:35 AM 19.4 °F 7.9 °F 19.4 °F 100% 29.94 in 0.5 mi ESE 10.4 mph - N/A Fog Light Freezing Fog
3:55 AM 19.4 °F 7.9 °F 19.4 °F 100% 29.94 in 1.0 mi SE 10.4 mph - N/A   Overcast
4:15 AM 19.4 °F 10.4 °F 19.4 °F 100% 29.94 in 1.0 mi SE 6.9 mph - N/A   Overcast
4:35 AM 17.6 °F 7.3 °F 17.6 °F 100% 29.93 in 0.8 mi ESE 8.1 mph - N/A   Overcast
4:55 AM 17.6 °F 10.7 °F 17.6 °F 100% 29.93 in 0.5 mi East 4.6 mph - N/A Fog Light Freezing Fog
5:15 AM 17.6 °F 12.3 °F 17.6 °F 100% 29.91 in 0.2 mi ENE 3.5 mph - N/A Fog Light Freezing Fog
5:40 AM 17.6 °F 9.3 °F 17.6 °F 100% 29.91 in 0.2 mi ENE 5.8 mph - N/A Fog Light Freezing Fog
5:55 AM 17.6 °F 8.2 °F 17.6 °F 100% 29.91 in 0.2 mi ENE 6.9 mph - N/A Fog Light Freezing Fog
6:20 AM 15.8 °F 5.1 °F 15.8 °F 100% 29.91 in 0.2 mi East 8.1 mph - N/A Fog Light Freezing Fog
6:35 AM 15.8 °F 5.1 °F 15.8 °F 100% 29.91 in 0.2 mi East 8.1 mph - N/A Fog Light Freezing Fog
6:55 AM 14.0 °F 2.0 °F 14.0 °F 100% 29.91 in 0.2 mi ENE 9.2 mph - N/A Fog Light Freezing Fog
7:15 AM 14.0 °F 0.5 °F 14.0 °F 100% 29.91 in 0.2 mi ENE 11.5 mph - N/A Fog Light Freezing Fog
7:35 AM 14.0 °F 0.5 °F 14.0 °F 100% 29.91 in 0.2 mi ENE 11.5 mph - N/A Fog Light Freezing Fog
7:55 AM 14.0 °F 1.2 °F 14.0 °F 100% 29.92 in 0.2 mi ENE 10.4 mph - N/A Fog Light Freezing Fog
8:15 AM 14.0 °F 0.5 °F 14.0 °F 100% 29.92 in 0.2 mi ENE 11.5 mph - N/A Fog Light Freezing Fog
8:35 AM 14.0 °F 0.5 °F 14.0 °F 100% 29.94 in 0.2 mi East 11.5 mph - N/A Fog Light Freezing Fog
8:55 AM 14.0 °F 1.2 °F 14.0 °F 100% 29.94 in 0.2 mi ENE 10.4 mph - N/A Fog Light Freezing Fog
9:15 AM 14.0 °F 2.9 °F 14.0 °F 100% 29.95 in 0.2 mi East 8.1 mph 18.4 mph N/A Fog Light Freezing Fog
9:35 AM 14.0 °F 1.2 °F 14.0 °F 100% 29.95 in 0.2 mi East 10.4 mph 18.4 mph N/A Fog Light Freezing Fog
10:00 AM 15.8 °F 3.4 °F 15.8 °F 100% 29.95 in 0.2 mi East 10.4 mph - N/A Fog Light Freezing Fog
10:15 AM 17.6 °F 5.0 °F 17.6 °F 100% 29.95 in 0.2 mi East 11.5 mph - N/A Fog Light Freezing Fog
10:40 AM 19.4 °F 7.2 °F 19.4 °F 100% 29.94 in 0.2 mi East 11.5 mph - N/A Fog Light Freezing Fog
10:55 AM 19.4 °F 7.2 °F 19.4 °F 100% 29.94 in 0.5 mi East 11.5 mph - N/A Snow Snow
11:15 AM 19.4 °F 7.2 °F 19.4 °F 100% 29.94 in 0.8 mi ENE 11.5 mph - N/A   Overcast
11:35 AM 21.2 °F 9.5 °F 21.2 °F 100% 29.93 in 0.8 mi ENE 11.5 mph - N/A   Overcast
11:55 AM 23.0 °F 11.7 °F 23.0 °F 100% 29.94 in 0.5 mi ENE 11.5 mph 16.1 mph N/A Fog Light Freezing Fog
12:15 PM 23.0 °F 12.4 °F 23.0 °F 100% 29.93 in 1.2 mi ENE 10.4 mph 19.6 mph N/A   Overcast
12:35 PM 23.0 °F 13.9 °F 23.0 °F 100% 29.93 in 1.5 mi East 8.1 mph 21.9 mph N/A   Overcast
12:55 PM 23.0 °F 13.9 °F 23.0 °F 100% 29.92 in 2.5 mi ENE 8.1 mph - N/A   Overcast
1:15 PM 24.8 °F 16.9 °F 24.8 °F 100% 29.91 in 3.0 mi East 6.9 mph - N/A   Overcast
1:35 PM 24.8 °F 16.1 °F 24.8 °F 100% 29.90 in 2.0 mi NE 8.1 mph - N/A   Overcast
1:55 PM 24.8 °F 15.3 °F 24.8 °F 100% 29.89 in 2.5 mi NE 9.2 mph - N/A   Overcast
2:15 PM 24.8 °F 15.3 °F 24.8 °F 100% 29.89 in 3.0 mi NE 9.2 mph - N/A   Mostly Cloudy
2:35 PM 24.8 °F 15.3 °F 24.8 °F 100% 29.89 in 7.0 mi NE 9.2 mph - N/A   Mostly Cloudy
3:00 PM 24.8 °F 16.1 °F 24.8 °F 100% 29.89 in 9.0 mi NE 8.1 mph - N/A   Overcast
3:15 PM 24.8 °F 13.4 °F 24.8 °F 100% 29.89 in 9.0 mi NNE 12.7 mph - N/A   Overcast
3:35 PM 24.8 °F 14.6 °F 24.8 °F 100% 29.90 in 10.0 mi NNE 10.4 mph - N/A   Mostly Cloudy
3:55 PM 24.8 °F 14.6 °F 24.8 °F 100% 29.90 in 10.0 mi NNE 10.4 mph - N/A   Overcast
4:15 PM 24.8 °F 12.9 °F 24.8 °F 100% 29.90 in 10.0 mi North 13.8 mph - N/A   Overcast
4:35 PM 24.8 °F 14.0 °F 24.8 °F 100% 29.91 in 8.0 mi NNE 11.5 mph - N/A   Overcast
5:00 PM 23.0 °F 10.6 °F 23.0 °F 100% 29.91 in 8.0 mi North 13.8 mph - N/A   Overcast
5:15 PM 23.0 °F 9.6 °F 23.0 °F 100% 29.91 in 5.0 mi North 16.1 mph - N/A   Overcast
5:35 PM 23.0 °F 9.6 °F 23.0 °F 100% 29.92 in 5.0 mi North 16.1 mph - N/A   Overcast
5:55 PM 23.0 °F 10.1 °F 23.0 °F 100% 29.92 in 5.0 mi NNE 15.0 mph - N/A   Overcast
6:15 PM 23.0 °F 11.1 °F 23.0 °F 100% 29.92 in 5.0 mi NNE 12.7 mph - N/A   Overcast
6:35 PM 23.0 °F 11.7 °F 23.0 °F 100% 29.93 in 6.0 mi NNE 11.5 mph - N/A   Overcast
6:55 PM 21.2 °F 8.9 °F 21.2 °F 100% 29.93 in 6.0 mi NNE 12.7 mph - N/A   Overcast
7:15 PM 21.2 °F 7.8 °F 21.2 °F 100% 29.94 in 6.0 mi NNE 15.0 mph 20.7 mph N/A   Overcast
7:35 PM 21.2 °F 7.8 °F 21.2 °F 100% 29.95 in 5.0 mi NNE 15.0 mph - N/A   Overcast
7:55 PM 21.2 °F 7.8 °F 21.2 °F 100% 29.95 in 4.0 mi NNE 15.0 mph - N/A   Overcast
8:15 PM 21.2 °F 8.3 °F 21.2 °F 100% 29.96 in 4.0 mi NE 13.8 mph - N/A   Overcast
8:35 PM 21.2 °F 8.9 °F 21.2 °F 100% 29.96 in 4.0 mi NE 12.7 mph - N/A   Overcast
8:55 PM 21.2 °F 8.3 °F 21.2 °F 100% 29.95 in 2.5 mi NNE 13.8 mph - N/A   Overcast
9:15 PM 21.2 °F 8.9 °F 21.2 °F 100% 29.95 in 2.5 mi North 12.7 mph - N/A   Overcast
9:35 PM 19.4 °F 6.6 °F 19.4 °F 100% 29.95 in 3.0 mi North 12.7 mph - N/A   Overcast
9:55 PM 19.4 °F 7.2 °F 19.4 °F 100% 29.95 in 2.0 mi North 11.5 mph - N/A   Overcast
10:35 PM 19.4 °F 7.2 °F 19.4 °F 100% 29.96 in 3.0 mi NNW 11.5 mph - N/A   Overcast
10:55 PM 19.4 °F 6.6 °F 19.4 °F 100% 29.96 in 5.0 mi NNW 12.7 mph - N/A   Overcast
11:15 PM 19.4 °F 5.5 °F 19.4 °F 100% 29.96 in 5.0 mi NNW 15.0 mph - N/A   Overcast
11:35 PM 19.4 °F 7.2 °F 19.4 °F 100% 29.96 in 5.0 mi NNW 11.5 mph - N/A   Overcast
11:55 PM 19.4 °F 7.9 °F 19.4 °F 100% 29.95 in 4.0 mi NNW 10.4 mph - N/A   Overcast